Simultaneous Nadir Overpasses (SNOs) Predictions

Prediction of SNOs between GOES-16 and METOP-B Satellite Orbit:

Table of predicted SNOs for the next 14.0 days since TLE Epoch: 8/20/2025
Index Date Time (GOES-16) GOES-16 Lat,Lon METOP-B Lat,Lon Distance(km) Time Diff (sec)
1 08/21/2025 04:20:23 -0.02,-104.69 -0.96,-109.03 494.80 80
2 08/22/2025 03:57:04 -0.01,-104.69 0.13,-104.05 72.09 80
3 08/23/2025 16:18:38 0.01,-104.73 0.88,-108.64 446.19 80
4 08/24/2025 15:55:19 0.00,-104.73 -0.21,-103.66 121.03 80
5 08/26/2025 04:17:02 -0.02,-104.69 -0.82,-108.29 410.38 80
6 08/27/2025 03:53:43 -0.01,-104.69 0.28,-103.31 156.94 80
7 08/28/2025 16:15:16 0.02,-104.74 0.73,-107.90 360.97 80
8 08/29/2025 15:51:58 0.01,-104.74 -0.37,-102.92 206.29 80
9 08/31/2025 04:13:40 -0.03,-104.69 -0.66,-107.55 325.28 80
10 09/01/2025 03:50:22 -0.02,-104.69 0.45,-102.57 241.78 80
11 09/02/2025 16:11:55 0.03,-104.73 0.55,-107.16 276.54 80
12 09/03/2025 15:48:37 0.03,-104.73 -0.55,-102.18 290.49 80
